Regional Weather Roundup
Issued by NWS

Home | Current Version | Previous Version | Text Only | Print | Product List | Glossary On
Versions: 1 2 3 4 5 6 7 8 9 10 11 12 13 14 15 16 17 18 19 20 21 22 23 24 25 26 27 28 29 30 31 32 33 34 35 36 37 38 39 40 41 42 43 44 45 46 47 48 49 50
000
ASUS45 KTFX 211310
RWRMT
MONTANA REGIONAL WEATHER ROUNDUP
NATIONAL WEATHER SERVICE GREAT FALLS MT
600 AM MST TUE NOV 21 2017

NOTE: "FAIR" INDICATES FEW OR NO CLOUDS BELOW 12000 FEET WITH NO
SIGNIFICANT WEATHER AND/OR OBSTRUCTIONS TO VISIBILITY.

MTZ001>007-043-211400-
WEST OF THE DIVIDE

CITY           SKY/WX    TMP DP  RH WIND       PRES   REMARKS
KALISPELL      CLOUDY    33  33 100 CALM      30.15R FOG
MISSOULA       FAIR      28  27  96 CALM      30.20R FOG
BUTTE          FAIR      21  18  88 S5        30.19R
MULLAN PASS    MOCLDY    27  25  92 VRB3      30.11R
ANACONDA         N/A     27  19  74 S5        30.18S
DEER LODGE       N/A     30  25  80 S5        30.20S
EUREKA           N/A     37  36  93 MISG      30.15R
HAMILTON         N/A     34  28  80 S6        30.20R WCI  29
LIBBY            N/A     36  36 100 CALM      30.17R
RONAN            N/A     34  31  89 CALM      30.18R
$$

MTZ008-052>055-211400-
SOUTHWEST MONTANA

CITY           SKY/WX    TMP DP  RH WIND       PRES   REMARKS
BOZEMAN        FAIR      30  28  92 S3        30.20R
DILLON         FAIR      26  23  88 E3        30.18R
W YELLOWSTONE  FOG       23  23 100 CALM      30.20R VSB<1/4
ENNIS          CLOUDY    27  25  93 N5        30.23R
$$

MTZ009-010-012-014-046-048-049-054-211400-
EAST SLOPES AND CENTRAL MONTANA

CITY           SKY/WX    TMP DP  RH WIND       PRES   REMARKS
CUT BANK       CLOUDY    16  12  84 SE10      30.13F WCI   4
GREAT FALLS    FAIR      17  14  88 E8        30.18F WCI   7
MALMSTROM AFB  FAIR      15  14  95 E5        30.20F
HELENA         FAIR      30  27  88 CALM      30.18S
BOWMANS CRNR   FAIR      21  21  99 S10       30.11F WCI  10
CHOTEAU          N/A     21  19  93 S8        30.16F WCI  12
FAIRFIELD      FAIR      19  16  88 E6        30.14F WCI  11
POWER          FAIR      15  13  89 SE7       30.15F WCI   6
RAYNESFORD     MOCLDY    22  19  90 E13       30.16F WCI  10
ULM            FAIR      17  16  94 E3        30.18F
$$

MTZ011-013-016-021-045-047-050-051-211400-
NORTH CENTRAL MONTANA

CITY           SKY/WX    TMP DP  RH WIND       PRES   REMARKS
HAVRE          CLOUDY    16   5  62 CALM      30.28F
LEWISTOWN      CLOUDY    20  19  96 CALM      30.19F
N BAR RANCH    CLOUDY    23  19  86 NE5       30.21F
CHINOOK          N/A     16   3  57 CALM      30.30F
DENTON         MOCLDY    17  15  92 CALM      30.18F
GEYSER         MOCLDY    19  18  96 CALM      30.18S
GRASS RANGE    MOCLDY    25  23  91 SW5       30.18R
STANFORD       MOCLDY    17  16  96 S6        30.16F WCI   8
WINIFRED       MOCLDY    19  18  96 CALM      30.20F
$$

MTZ017>020-022>027-061-062-211400-
NORTHEAST MONTANA

CITY           SKY/WX    TMP DP  RH WIND       PRES   REMARKS
GLASGOW        FAIR       2  -3  80 N3        30.33S
GLENDIVE       FAIR       4  -2  76 NW12      30.33R WCI -12
JORDAN           N/A     15   4  61 N5        30.31R
SIDNEY         FAIR       3  -3  76 NW13      30.36R WCI -14
WOLF POINT     FAIR       2  -4  76 W8        30.38R WCI -12
MALTA          PTCLDY     7   1  78 CALM      30.36R
PLENTYWOOD       N/A      0  -6  78 W10       30.29R WCI -17
POPLAR           N/A      1  -6  71 W6        30.37S WCI -10
$$

MTZ028>42-056>058-211400-
SOUTHCENTRAL AND SOUTHEAST MONTANA

CITY           SKY/WX    TMP DP  RH WIND       PRES   REMARKS
BAKER          FAIR       7   0  73 NW16      30.28R WCI -11
BILLINGS       MOCLDY    26  24  92 CALM      30.26R
LIVINGSTON     CLOUDY    28  28 100 E5        30.20R FOG
MILES CITY     CLOUDY    17   8  67 NW7       30.32R WCI   8
BIG TIMBER     CLOUDY    25  23  93 E7        30.24R WCI  17
FORSYTH          N/A     21  14  73 CALM      30.32R
HARLOWTON      CLOUDY    24  22  89 SE5       30.21S
LAUREL           N/A     25  23  93 N8        30.27R WCI  16
$$

REGIONAL REPORTS...DAKOTAS

CITY           SKY/WX    TMP DP  RH WIND       PRES   REMARKS
WILLISTON      CLOUDY     4  -2  76 NW9       30.34R WCI -10
MINOT          CLOUDY     7   1  76 W18       30.25R WCI -12
DICKINSON      FAIR       4  -1  80 W21       30.23R WCI -17
BEACH          FAIR       3  -4  72 NW13      30.31R WCI -14
CROSBY         CLOUDY     5   0  78 NW14      30.30R WCI -12
TIOGA          CLOUDY     3   0  85 W15       30.27R WCI -15
WATFORD CITY   CLOUDY     3  -2  78 W12G17    30.32R WCI -13
BISMARCK       FAIR      17   5  59 NW23G35   30.27R WCI  -1
GRAND FORKS    FAIR      13   7  77 N25G35    30.11R WCI  -7
FARGO          CLOUDY    16   9  74 NW29G37   30.08R WCI  -4
BUFFALO SD       N/A     14   4  64 N15       30.17R WCI  -1
RAPID CITY     FAIR      28  22  78 N23G35    30.19R WCI  14
$$

REGIONAL REPORTS...WYOMING/IDAHO/WASHINGTON

CITY           SKY/WX    TMP DP  RH WIND       PRES   REMARKS
GILLETTE       CLOUDY    25  21  85 N8        30.23R WCI  16
SHERIDAN       CLOUDY    27  24  89 S3        30.24S
BUFFALO WY     CLOUDY    24  20  84 CALM      30.23R
CODY           CLOUDY    25  24  96 S3        30.20R
YELLOWSTONE LA   N/A     24  23  96 W3        30.22R
IDAHO FALLS    CLOUDY    34  32  92 N5        30.24R
SALMON         FOG       31  30  96 SW5       30.23R VSB 1/2
BOISE          MOCLDY    45  42  89 CALM      30.19R
SPOKANE        FAIR      33  33 100 N3        30.15R
$$

REGIONAL REPORTS...ALBERTA

CITY           SKY/WX    TMP DP  RH WIND       PRES   REMARKS
EDMONTON         N/A     -2  -9  71 SE5       30.28
CALGARY        CLOUDY    12   7  79 SE8       30.09S WCI   1
LETHBRIDGE     CLOUDY    16   9  73 E7        30.16R WCI   6
MEDICINE HAT   CLEAR      5   0  78 NE2       30.28F
$$

REGIONAL REPORTS...SASKATCHEWAN

CITY           SKY/WX    TMP DP  RH WIND       PRES   REMARKS
SWIFT CURRENT  CLEAR     -8 -13  77 W10       30.25R WCI -26
REGINA         CLOUDY     3  -2  78 NW15      30.29R WCI -15
SASKATOON      FLURRIES   1  -4  78 W7        30.33S WCI -11
$$



USA.gov is the U.S. government's official web portal to all federal, state and local government web resources and services.